Torna al catalogo

STARLINK-35273

AttivoComunicazioniSSO
NORAD 65805·PAYLOAD·🇺🇸 United States

Lanciato Sep 26, 2025 da Vandenberg Space Force Base

Loading…

Prossimi Passaggi (prossime 24 ore)

TLE

AggiornatoSource: CelesTrak SupGP

Epoca: Sep 14, 2026, 14:36 UTC

1 65805C 25218Q   26257.60881944  .00014916  00000+0  46290-3 0  2575
2 65805  97.2836 115.0731 0001846  87.1669 186.8401 15.33440166    17

Traccia STARLINK-35273 in tempo reale con AllMySat

Download on the App Store